Regional Weather Roundup
Issued by NWS Burlington, VT

Home | Current Version | Previous Version | Text Only | Print | Product List | Glossary On
Versions: 1 2 3 4 5 6 7 8 9 10 11 12 13 14 15 16 17 18 19 20 21 22 23 24 25 26 27 28 29 30 31 32 33 34 35 36 37 38 39 40 41 42 43 44 45 46 47 48 49 50
000
ASUS41 KBTV 301610
RWRBTV
VERMONT REGIONAL WEATHER ROUNDUP
NATIONAL WEATHER SERVICE BURLINGTON VT
1200 PM EDT WED JUL 30 2014

NOTE: "FAIR" INDICATES FEW OR NO CLOUDS BELOW 12,000 FEET WITH NO
SIGNIFICANT WEATHER AND/OR OBSTRUCTIONS TO VISIBILITY.

* THESE REPORTS ARE NOT UNDER NWS QUALITY CONTROL AND/OR DO NOT
  REPORT WEATHER SUCH AS PRECIPITATION AND FOG.

VTZ001>019-301700-
_____VERMONT_____


CITY           SKY/WX    TMP DP  RH WIND       PRES   REMARKS
BURLINGTON     MOSUNNY   72  52  49 S7        30.00F
MONTPELIER     SUNNY     68  52  56 CALM      30.07F
MORRISVILLE    SUNNY     71  54  54 VRB3      30.03F
ST. JOHNSBURY*   N/A     69  49  48 MISG      30.01F
LYNDONVILLE*   FAIR      69  48  47 CALM      30.05F
MIDDLEBURY*    FAIR      70  57  63 W3        30.01F
RUTLAND*       CLOUDY    66  54  63 S5        30.02F
SPRINGFIELD    PTSUNNY   66  55  67 CALM      30.04F
HIGHGATE*      FAIR      71  55  58 SW6       30.00S
NEWPORT*       FAIR      68  51  54 CALM      30.03F
BENNINGTON     MOSUNNY   69  56  62 NE3       30.03F
SUTTON*          N/A     68 N/A N/A MISG        N/A

_____LAKE CHAMPLAIN_____


CITY           SKY/WX    TMP DP  RH WIND       PRES   REMARKS
COLCHESTER RF*   N/A     64  57  77 S9          N/A
DIAMOND ISL*     N/A     66  59  77 SW3         N/A

$$

NYZ007-026>031-035-052-083-301700-
_____NORTHERN NEW YORK_____


CITY           SKY/WX    TMP DP  RH WIND       PRES   REMARKS
PLATTSBURGH    SUNNY     69  57  65 SE10      30.00F
SARANAC LAKE   SUNNY     66  48  52 SW14      30.01F
MASSENA        PTSUNNY   68  57  68 W10       29.99S
OGDENSBURG*    PTSUNNY   66  57  72 SW6       29.99S
POTSDAM*       CLOUDY    68  57  68 W8        29.99F
WATERTOWN      MOSUNNY   70  52  52 S8        29.98F
FT DRUM        MOSUNNY   69  54  59 S10       29.99F
ALBANY         MOSUNNY   72  53  51 VRB5      30.03F
GLENS FALLS    SUNNY     70  54  56 SE8       30.02S

$$
NHZ002-005-011-301700-
_____NEW HAMPSHIRE_____


CITY           SKY/WX    TMP DP  RH WIND       PRES   REMARKS
LEBANON        CLOUDY    66  54  65 CALM      30.03S
KEENE          SUNNY     72  50  46 SW8       30.03S
MT WASHINGTON  CLOUDY    45  34  65 W6          N/A
PLYMOUTH       FAIR      70  53  54 CALM      30.01F
WHITEFIELD     CLOUDY    70  53  54 VRB3      30.03F

$$

_____REGIONAL QUEBEC LOCATIONS_____


CITY           SKY/WX    TMP DP  RH WIND       PRES   REMARKS
MONTREAL       MOSUNNY   72  54  53 SW9       29.99F
QUEBEC CITY    MOSUNNY   70  55  60 S2        30.01F
SHERBROOKE     PTSUNNY   68  52  56 NE3       30.02F

_____REGIONAL ONTARIO LOCATIONS_____


CITY           SKY/WX    TMP DP  RH WIND       PRES   REMARKS
OTTAWA         CLOUDY    66  59  77 S13G23    29.96F

______KEY______
VSB  - VISIBILITY IN MILES
WCI  - WIND CHILL INDEX
HX   - HEAT INDEX
$$
NNNN



USA.gov is the U.S. government's official web portal to all federal, state and local government web resources and services.